Regional Weather Roundup
Issued by NWS

Home | Current Version | Previous Version | Graphics & Text | Print | Product List | Glossary On
Versions: 1 2 3 4 5 6 7 8 9 10 11 12 13 14 15 16 17 18 19 20 21 22 23 24 25 26 27 28 29 30 31 32 33 34 35 36 37 38 39 40 41 42 43 44 45 46 47 48 49 50
000
ASUS45 KBOI 280610
RWRID
WEATHER ROUNDUP FOR IDAHO
NATIONAL WEATHER SERVICE BOISE ID
1100 PM MST TUE JAN 27 2015

NOTE: "FAIR" INDICATES FEW OR NO CLOUDS BELOW 12000 FEET
WITH NO SIGNIFICANT WEATHER AND/OR OBSTRUCTIONS TO VISIBILITY

IDZ012-014-280700-
SOUTHWEST IDAHO


CITY           SKY/WX    TMP DP  RH WIND       PRES   REMARKS
BOISE          CLOUDY    37  36  96 CALM      30.18R FOG
CALDWELL       CLOUDY    36  30  80 W5        30.21R WCI  32
MOUNTAIN HOME  DRZL/FOG  36  35  99 W5        30.17R VSB 1   WCI  32
$$

IDZ016-017-280700-
SOUTHCENTRAL IDAHO


CITY           SKY/WX    TMP DP  RH WIND       PRES   REMARKS
BURLEY         LGT RAIN  41  39  93 W6        30.14R FOG
JEROME         LGT RAIN  39  38  96 SW7       30.15R FOG     WCI  34
TWIN FALLS     CLOUDY    43  38  82 SW9       30.14S
$$

IDZ019>023-280700-
SOUTHEAST IDAHO


CITY           SKY/WX    TMP DP  RH WIND       PRES   REMARKS
IDAHO FALLS    CLOUDY    39  34  82 S6        30.12S WCI  35
POCATELLO      MOCLDY    40  36  86 SW14      30.13R WCI  32
REXBURG        CLOUDY    39  34  82 E3        30.12S
$$

IDZ006-010-011-018-031-032-280700-
CENTRAL IDAHO MOUNTAINS


CITY           SKY/WX    TMP DP  RH WIND       PRES   REMARKS
MCCALL         CLOUDY    34  31  88 NE3       30.13R
HAILEY         DRIZZLE   34  34 100 NW5       30.14S WCI  30
STANLEY          N/A     34  32  92 CALM      30.13R
SALMON         CLOUDY   N/A N/A N/A CALM      30.13S
CHALLIS        CLOUDY    34  31  88 CALM      30.11R
$$

IDZ002-004-006-007-026-280700-
NORTHERN IDAHO


CITY           SKY/WX    TMP DP  RH WIND       PRES   REMARKS
LEWISTON       CLOUDY    42  38  85 S3        30.14R
LOWELL           N/A     36  34  92 N3        30.18R
COEUR D`ALENE  PTCLDY    36  32  87 SW9       30.10R WCI  29
MULLAN PASS    CLEAR     32  25  75 SW7       30.04S WCI  26
$$


USA.gov is the U.S. government's official web portal to all federal, state and local government web resources and services.